Wetbulb
66.59 66.07 61.95 57.24 50.67 48.54 45.74 49.77 53.39 51.65 49.77 51.68 52.65 51.94 50.11 50.71 50.54 45.87 59.75 66.95 66.43 65.73 70.00 72.73 74.20 74.10 73.75 73.38 72.98 72.79 72.61 71.85 70.62 70.54 70.54 70.34 69.87 69.16 68.76 68.45 67.97 67.29 67.16 67.09 67.26 67.37 67.41 67.59 68.74
63.80 62.86 56.75 56.21 48.17 44.61 46.67 52.75 51.02 50.51 52.01 52.33 52.48 51.62 50.99 53.01 58.22 58.46 61.31 67.39 66.03 66.50 69.22 71.55 74.38 74.18 73.93 73.66 73.48 73.37 72.79 72.04 71.42 71.32 71.30 71.35 70.68 69.85 69.35 69.30 69.07 68.83 68.56 68.45 68.04 67.87 67.71 67.76 67.51
60.43 59.29 53.11 52.53 48.07 44.99 46.63 53.29 54.24 53.08 53.33 52.43 51.09 54.41 54.35 54.03 59.76 58.89 60.80 68.09 66.00 66.27 68.83 70.49 74.35 73.98 73.90 73.73 73.73 73.47 73.06 72.49 71.90 71.62 71.33 70.81 70.33 70.06 69.79 69.69 69.59 69.52 69.66 69.41 69.03 68.65 68.37 68.12 68.14
60.27 59.76 56.80 48.71 46.02 50.36 52.48 54.82 55.29 50.73 51.81 51.92 52.60 52.75 56.00 59.66 60.41 61.18 67.57 68.97 66.64 67.21 68.80 71.35 74.25 74.03 74.10 73.63 73.13 72.98 72.64 72.44 71.70 71.18 70.81 70.07 69.73 70.08 70.61 69.52 69.49 69.26 69.21 68.96 69.36 69.34 68.62 68.40 69.02
60.62 56.13 48.34 45.38 48.00 51.94 54.16 55.41 52.63 50.28 50.57 50.57 51.29 52.44 53.75 59.42 62.31 62.39 65.41 68.55 66.29 66.91 68.56 71.89 74.52 74.39 74.47 73.55 73.08 73.30 73.15 72.34 71.38 71.01 70.41 69.74 69.88 70.16 69.59 68.91 68.76 68.90 68.96 68.97 69.31 69.16 69.18 69.79 69.62
54.50 51.84 43.16 42.47 47.07 51.60 52.52 54.37 54.22 51.85 52.17 51.07 52.69 52.86 53.03 59.12 60.33 60.04 59.94 61.92 67.40 69.14 71.03 72.10 74.15 74.31 74.30 74.19 73.11 72.31 71.23 70.33 69.43 68.53 68.39 68.63 68.68 68.61 68.36 68.30 68.15 68.04 68.14 68.50 68.73 69.25 69.46 69.43 69.27
51.93 48.46 44.31 45.98 48.40 49.54 52.44 55.15 53.28 52.45 51.51 50.90 53.71 51.49 54.41 56.52 58.75 59.63 59.06 63.01 66.24 68.66 69.85 70.55 71.66 73.29 73.30 72.19 72.09 71.42 70.26 69.10 67.35 65.87 65.73 65.93 66.31 66.62 66.84 67.01 67.24 67.40 67.59 67.71 68.34 69.01 69.31 69.12 68.93
54.07 49.64 44.92 46.19 46.12 46.94 52.85 51.77 52.69 52.67 53.59 55.33 55.32 52.01 51.37 56.66 58.73 58.11 58.25 58.63 61.83 64.58 66.37 66.48 66.13 66.41 66.82 68.13 70.25 69.88 68.44 66.47 66.18 65.97 65.88 65.54 65.38 65.30 65.61 65.92 66.26 66.70 66.75 67.18 68.11 68.11 68.73 68.37 68.64
56.48 46.25 44.28 45.97 47.71 49.51 54.18 49.57 53.96 55.27 53.37 54.09 54.44 54.71 57.71 59.30 58.03 56.18 55.35 55.39 55.65 59.83 61.12 63.43 62.25 63.86 64.75 65.17 66.59 68.17 67.33 66.71 66.81 65.95 65.67 65.24 61.71 60.33 61.90 64.17 66.21 66.79 67.42 67.37 67.33 67.85 67.76 67.66 67.96
52.21 46.29 49.26 53.35 52.21 50.42 53.58 51.72 53.15 51.56 51.62 52.45 55.15 57.69 58.80 58.81 56.90 55.49 54.41 54.22 53.65 55.00 55.64 56.10 57.69 59.87 61.89 64.90 63.40 63.44 62.62 62.35 62.55 61.24 60.21 59.68 59.33 59.32 62.60 64.08 65.78 66.12 66.59 66.96 67.30 67.37 67.35 67.29 62.77
52.21 49.60 53.60 54.31 55.03 54.64 53.68 53.81 54.68 51.08 49.25 51.40 52.15 55.71 57.03 56.54 55.11 54.88 54.39 54.27 53.93 54.00 56.26 56.95 57.97 58.12 58.69 59.81 60.49 59.98 58.85 59.02 59.14 59.65 59.79 59.69 59.96 59.33 59.56 59.53 60.88 60.63 63.82 62.70 64.55 64.09 64.33 63.01 61.91
49.28 54.42 55.22 55.42 56.21 54.49 53.18 55.23 53.74 52.11 51.77 54.05 55.38 57.44 56.46 55.27 54.71 53.88 53.71 53.38 53.45 54.60 54.98 55.80 57.63 58.48 58.61 60.04 59.78 59.40 59.73 58.84 58.59 58.89 59.54 59.16 58.84 58.46 58.96 59.71 60.05 59.94 60.80 60.94 60.97 60.99 61.49 61.98 61.74
51.70 53.85 55.45 55.93 55.18 54.80 55.41 53.45 53.00 52.13 54.91 55.54 55.69 56.15 55.82 55.44 54.52 53.85 53.47 53.52 53.48 54.19 56.75 57.40 58.20 59.30 60.32 59.99 59.60 59.67 59.41 59.47 59.15 58.90 60.02 60.06 58.76 58.30 61.21 61.16 60.45 59.08 59.68 59.88 59.66 60.32 60.68 60.58 61.19
53.83 54.34 54.45 55.23 54.77 55.12 53.63 53.85 52.27 53.70 55.56 54.67 53.65 53.91 54.20 53.82 54.05 52.76 53.23 53.41 53.93 56.15 57.56 57.76 58.52 59.58 60.35 59.48 59.59 59.93 59.56 60.33 60.23 59.98 60.25 60.23 59.53 59.94 60.68 58.06 58.44 58.10 58.40 59.20 59.38 59.60 59.55 60.02 60.31
51.10 49.54 52.57 53.22 52.24 51.42 53.31 49.95 50.44 53.95 54.36 53.05 52.22 52.21 53.53 54.24 54.15 54.55 55.10 54.89 55.20 55.42 57.88 57.31 58.49 59.36 59.55 59.48 59.62 59.51 60.00 61.08 60.28 60.30 60.03 59.89 59.76 59.49 58.79 58.00 58.06 58.36 58.22 58.25 58.80 58.99 59.42 59.26 60.03
45.73 44.22 41.64 48.57 50.75 52.06 50.12 45.95 51.91 53.87 52.88 52.49 52.88 52.34 52.59 52.49 54.99 54.97 55.05 55.22 54.03 55.47 56.81 57.89 60.99 58.62 58.58 57.82 58.96 60.10 60.77 60.42 60.12 59.98 60.06 60.43 60.68 59.82 58.35 57.92 58.16 58.40 57.76 57.58 57.74 58.04 58.04 58.36 58.66
42.37 40.03 42.11 44.95 50.75 51.12 49.47 47.61 52.42 54.25 52.74 52.23 52.16 52.59 53.39 53.05 53.51 53.98 55.50 55.82 54.45 56.13 56.08 57.06 57.68 57.77 57.76 58.83 59.55 59.98 60.54 60.30 60.66 60.16 59.91 59.68 59.81 59.61 58.07 58.44 58.44 58.31 57.46 56.96 57.14 56.62 57.53 57.24 57.74
40.03 39.97 43.04 44.12 48.81 49.52 48.27 48.02 51.51 53.14 52.91 52.31 51.80 52.63 53.01 52.36 53.07 54.95 55.89 55.64 54.55 56.14 56.82 57.63 57.91 57.86 59.17 59.31 58.58 59.93 59.51 60.56 61.09 61.23 60.27 59.86 59.49 60.06 58.95 58.64 58.58 58.16 56.58 56.14 56.76 56.16 57.80 57.65 57.60
44.86 43.11 42.58 46.67 49.76 47.82 47.58 48.37 50.69 52.19 51.15 51.31 50.43 50.92 51.93 51.82 53.60 55.23 56.61 55.97 55.35 56.24 57.29 57.16 57.65 58.19 58.54 56.99 57.57 57.23 57.81 59.25 60.08 61.44 61.43 60.91 59.72 59.75 58.62 58.72 58.42 57.86 56.54 56.04 56.60 56.94 56.97 56.90 57.74
44.08 43.24 43.06 46.46 49.08 47.04 46.99 46.96 50.66 51.43 50.52 50.27 50.87 50.75 50.52 51.25 53.86 55.63 55.42 55.04 55.13 56.38 57.37 57.69 58.12 57.80 58.01 57.06 59.22 58.52 58.67 59.51 59.94 60.45 60.91 61.94 61.02 61.65 59.85 59.14 58.05 57.74 56.72 56.36 57.02 57.01 56.04 56.48 57.70
43.50 42.43 43.96 44.12 47.68 48.59 46.16 44.75 46.39 50.68 51.31 51.86 51.55 51.42 51.87 52.30 52.83 54.55 55.19 54.10 54.37 55.79 57.16 58.45 58.12 58.39 57.19 58.83 59.05 58.54 58.54 58.95 59.17 60.02 60.71 60.05 60.64 61.88 60.64 59.50 58.35 57.74 56.92 56.32 56.36 57.06 56.77 55.92 57.24
40.65 47.17 47.05 46.68 44.48 38.50 46.07 36.22 42.28 47.03 47.77 49.37 49.96 49.68 50.79 52.31 53.55 54.82 54.67 53.31 53.95 54.64 56.62 58.27 58.45 57.01 58.20 58.23 57.72 57.69 57.17 56.48 57.65 58.03 59.12 58.87 60.26 60.58 60.52 59.62 58.90 58.05 57.36 56.60 57.36 58.57 57.65 57.49 56.44
43.70 47.63 46.45 46.48 44.19 41.09 42.83 37.36 40.80 45.53 45.89 48.34 49.34 49.60 50.35 52.37 53.28 54.05 54.57 54.87 54.76 56.67 56.44 58.01 56.64 58.36 58.74 57.96 58.00 58.39 56.76 57.90 58.06 57.68 57.67 58.38 59.65 61.05 60.81 59.65 58.71 57.68 57.41 57.41 58.69 57.61 58.07 57.95 57.98
48.70 46.29 45.34 44.98 42.48 36.18 41.78 39.84 41.83 42.47 46.39 47.84 48.75 50.76 50.82 51.05 52.30 53.75 55.54 55.20 54.82 55.11 56.30 56.46 55.63 56.74 58.35 58.39 58.39 57.82 56.95 56.95 56.42 56.36 56.96 57.06 57.86 59.94 59.40 59.95 58.22 57.22 57.11 57.85 57.85 57.73 58.05 57.57 59.04
45.91 41.25 33.91 29.61 32.22 33.82 41.78 39.20 41.77 46.20 48.60 49.50 48.18 49.88 50.38 51.72 52.87 54.54 54.77 54.09 53.73 54.52 55.47 55.66 56.19 56.52 57.16 57.50 58.35 57.47 58.01 57.00 55.76 55.88 56.82 55.84 56.28 56.82 57.11 58.14 58.74 57.56 57.92 58.65 58.71 58.09 59.84 58.19 58.94
41.48 40.27 36.10 28.92 29.51 34.20 42.42 37.20 42.36 48.39 49.98 50.72 50.94 51.24 51.53 51.06 53.36 54.33 54.90 54.16 53.37 54.45 55.19 55.78 55.59 54.57 54.99 56.81 57.89 57.49 58.50 57.36 56.52 57.39 57.26 56.88 56.50 56.90 57.51 58.69 58.70 59.21 59.69 60.07 58.99 60.39 60.13 59.45 59.21
40.95 39.27 43.76 37.61 37.90 34.59 37.45 42.17 47.52 48.63 48.41 50.51 50.70 51.48 50.24 51.04 52.70 54.16 54.56 53.26 52.00 53.67 54.42 54.63 55.91 55.20 54.35 56.72 57.88 58.19 58.89 58.24 57.89 57.77 57.58 57.42 57.48 58.61 58.71 58.90 58.72 59.61 59.84 59.44 60.16 60.82 60.13 60.80 61.34
42.83 44.72 38.35 35.72 31.15 28.94 35.29 38.08 39.39 43.60 46.20 49.83 49.60 49.37 49.70 51.18 52.68 54.19 54.22 52.64 51.94 53.52 52.78 52.82 55.87 54.46 55.80 56.85 56.48 59.38 60.97 59.65 59.24 58.05 57.63 57.87 57.57 58.14 58.90 58.91 58.93 59.25 59.56 59.74 60.55 60.05 59.35 61.51 62.00
40.29 39.64 40.49 40.03 37.05 32.16 28.87 34.95 43.94 45.73 46.07 49.63 50.06 50.86 50.82 51.89 53.22 54.10 53.47 53.36 52.39 52.39 51.53 52.88 55.33 54.32 54.84 56.26 56.74 60.15 60.48 60.26 59.98 59.23 57.57 58.23 58.28 58.51 59.38 59.46 59.89 59.53 59.66 59.96 59.87 59.01 59.98 61.07 61.44
43.43 41.36 41.61 38.65 34.39 36.12 35.51 37.16 46.90 47.54 48.25 51.80 50.64 52.03 51.69 52.94 53.52 53.71 53.37 52.96 52.21 51.85 52.02 54.04 54.51 54.50 54.59 55.97 56.03 59.90 60.51 59.92 59.77 59.07 58.63 58.68 58.48 59.03 59.70 60.32 60.54 60.40 59.53 59.98 60.20 60.16 60.36 60.20 60.36
MSLP
1013.52 1013.48 1013.87 1014.00 1014.98 1014.67 1013.39 1011.35 1009.55 1007.96 1006.82 1006.16 1005.65 1005.87 1006.81 1007.43 1007.74 1008.95 1008.38 1008.67 1009.05 1009.58 1010.18 1010.72 1011.18 1011.47 1011.77 1012.18 1012.45 1012.75 1013.03 1013.22 1013.44 1013.63 1013.80 1013.91 1014.07 1014.17 1014.28 1014.29 1014.32 1014.27 1014.29 1014.35 1014.41 1014.33 1014.26 1014.21 1014.22
1013.60 1013.91 1013.92 1014.20 1014.91 1014.35 1012.41 1009.89 1008.49 1007.35 1006.20 1005.64 1005.47 1006.16 1006.66 1007.44 1007.58 1008.24 1008.60 1008.59 1008.71 1009.45 1010.11 1010.68 1010.93 1011.38 1011.81 1012.14 1012.36 1012.66 1012.85 1012.98 1013.11 1013.37 1013.44 1013.67 1013.81 1013.92 1013.99 1014.02 1013.96 1013.90 1014.00 1014.09 1014.16 1014.05 1013.93 1013.96 1014.07
1013.38 1013.27 1014.16 1014.08 1014.16 1013.28 1011.37 1008.96 1007.20 1006.38 1005.64 1005.47 1005.52 1005.53 1006.42 1006.88 1007.24 1007.32 1007.46 1008.36 1008.88 1009.58 1009.99 1010.43 1010.95 1011.44 1011.77 1012.16 1012.46 1012.62 1012.70 1012.77 1012.77 1013.09 1013.15 1013.30 1013.46 1013.60 1013.61 1013.66 1013.66 1013.60 1013.63 1013.68 1013.69 1013.72 1013.75 1013.73 1013.85
1013.11 1013.55 1013.93 1013.82 1013.28 1011.66 1010.07 1007.91 1007.29 1005.93 1005.26 1005.27 1005.34 1006.16 1006.67 1006.66 1006.83 1007.11 1007.68 1008.33 1008.83 1009.35 1009.81 1010.36 1010.81 1011.14 1011.59 1011.92 1012.21 1012.36 1012.54 1012.51 1012.57 1012.77 1012.88 1012.97 1013.09 1013.16 1013.25 1013.27 1013.29 1013.24 1013.25 1013.28 1013.28 1013.34 1013.41 1013.51 1013.63
1013.16 1013.74 1014.07 1013.44 1011.93 1010.24 1008.88 1007.34 1006.50 1005.79 1005.36 1005.29 1005.52 1006.77 1007.03 1006.97 1006.78 1007.19 1007.85 1008.32 1008.84 1009.45 1009.65 1010.26 1010.64 1010.96 1011.19 1011.54 1011.74 1012.00 1012.30 1012.28 1012.39 1012.56 1012.62 1012.64 1012.73 1012.77 1012.92 1012.95 1012.90 1012.86 1012.87 1012.90 1012.92 1013.03 1013.24 1013.29 1013.41
1013.40 1014.00 1014.14 1013.21 1011.30 1009.51 1008.14 1006.72 1005.97 1005.38 1005.35 1005.35 1005.93 1006.59 1006.97 1006.71 1006.91 1007.36 1007.68 1008.20 1008.62 1009.14 1009.61 1009.95 1010.21 1010.55 1010.78 1011.20 1011.48 1011.64 1012.00 1012.14 1012.38 1012.58 1012.63 1012.61 1012.58 1012.65 1012.71 1012.67 1012.63 1012.55 1012.53 1012.54 1012.63 1012.67 1012.82 1012.94 1013.12
1013.32 1014.04 1013.75 1012.67 1011.24 1009.15 1007.39 1006.20 1005.85 1005.06 1004.66 1004.83 1005.32 1006.47 1007.14 1007.22 1006.90 1007.17 1007.70 1008.15 1008.65 1008.98 1009.44 1009.82 1010.07 1010.30 1010.55 1010.77 1011.16 1011.50 1011.77 1012.00 1012.14 1012.39 1012.47 1012.47 1012.40 1012.47 1012.48 1012.39 1012.34 1012.28 1012.22 1012.26 1012.32 1012.28 1012.42 1012.64 1012.84
1012.80 1013.41 1013.03 1011.90 1010.70 1008.99 1006.83 1006.51 1005.79 1005.14 1004.65 1004.23 1004.68 1005.93 1006.78 1006.68 1006.89 1007.60 1007.92 1008.35 1008.59 1008.90 1009.33 1009.80 1009.91 1010.10 1010.41 1010.78 1010.89 1011.28 1011.57 1011.84 1011.93 1012.04 1012.21 1012.18 1012.10 1012.32 1012.17 1012.05 1012.11 1011.98 1011.72 1011.69 1011.72 1011.82 1012.02 1012.36 1012.53
1012.01 1012.83 1012.07 1010.93 1009.97 1008.27 1006.30 1006.45 1005.59 1005.00 1004.78 1004.64 1004.53 1004.95 1004.45 1005.27 1006.81 1007.84 1008.41 1008.77 1009.05 1009.22 1009.35 1009.76 1010.05 1010.36 1010.47 1010.77 1010.89 1011.22 1011.50 1011.67 1011.71 1011.76 1011.80 1011.78 1011.87 1012.00 1011.98 1011.97 1011.76 1011.47 1011.28 1011.16 1011.15 1011.31 1011.69 1012.06 1012.29
1011.65 1011.69 1010.43 1008.76 1008.88 1008.12 1007.00 1006.35 1005.72 1005.32 1004.63 1004.46 1004.54 1004.67 1004.71 1005.55 1006.60 1007.51 1007.99 1008.51 1008.78 1009.13 1009.70 1009.83 1010.13 1010.47 1010.56 1010.62 1010.99 1011.31 1011.52 1011.51 1011.52 1011.59 1011.72 1011.66 1011.79 1011.83 1011.73 1011.56 1011.26 1010.97 1010.88 1010.92 1010.92 1011.15 1011.47 1011.74 1012.11
1010.09 1009.62 1008.75 1008.41 1007.98 1007.49 1006.76 1005.92 1005.43 1005.09 1004.60 1004.15 1004.48 1005.03 1005.13 1005.84 1006.52 1007.11 1007.54 1007.90 1008.12 1008.63 1009.18 1009.75 1010.20 1010.43 1010.56 1010.96 1011.09 1011.33 1011.53 1011.49 1011.48 1011.36 1011.38 1011.43 1011.63 1011.77 1011.66 1011.48 1011.33 1011.10 1010.90 1010.89 1010.80 1010.95 1011.29 1011.57 1011.91
1009.64 1008.70 1008.25 1007.28 1007.00 1006.80 1006.16 1005.49 1004.93 1004.58 1003.99 1003.48 1003.73 1004.32 1005.21 1005.87 1006.28 1006.78 1007.39 1007.84 1008.15 1008.39 1008.92 1009.50 1010.03 1010.22 1010.44 1010.46 1010.90 1011.09 1011.21 1011.12 1011.19 1011.16 1011.17 1011.38 1011.42 1011.47 1011.41 1011.31 1011.24 1011.15 1011.02 1010.97 1011.03 1011.10 1011.20 1011.48 1011.61
1008.86 1007.53 1007.14 1006.68 1006.43 1005.96 1005.42 1005.03 1004.54 1003.85 1003.17 1002.88 1003.57 1004.43 1004.76 1005.31 1005.78 1006.18 1006.65 1007.13 1007.66 1008.40 1008.93 1009.28 1009.69 1009.88 1010.09 1010.33 1010.58 1010.81 1010.92 1010.86 1010.80 1010.84 1010.86 1010.82 1011.05 1011.17 1011.05 1011.09 1011.02 1010.98 1010.84 1010.91 1011.04 1011.13 1011.29 1011.55 1011.56
1007.02 1007.24 1006.82 1006.32 1005.91 1005.47 1004.98 1004.11 1004.06 1003.08 1002.64 1002.86 1003.37 1004.01 1004.21 1004.65 1004.97 1005.85 1006.40 1006.79 1007.40 1007.79 1008.45 1008.63 1009.05 1009.40 1009.59 1010.09 1010.35 1010.48 1010.33 1010.25 1010.38 1010.39 1010.37 1010.33 1010.45 1010.66 1010.84 1010.97 1010.89 1010.86 1010.64 1010.65 1010.75 1010.98 1011.26 1011.43 1011.60
1007.42 1007.19 1006.50 1005.96 1005.36 1004.61 1004.52 1003.60 1002.97 1002.48 1002.41 1002.64 1003.12 1003.17 1003.54 1003.75 1004.43 1004.67 1005.08 1005.86 1006.46 1007.31 1008.03 1008.51 1008.70 1008.86 1009.24 1009.68 1009.89 1009.97 1009.88 1009.85 1010.11 1009.99 1009.95 1009.96 1010.06 1010.28 1010.64 1010.60 1010.61 1010.56 1010.33 1010.42 1010.62 1010.92 1011.13 1011.34 1011.50
1007.46 1007.03 1006.16 1005.21 1004.83 1003.85 1004.54 1002.85 1002.18 1001.76 1002.20 1002.47 1002.63 1002.77 1003.06 1003.44 1003.57 1003.94 1004.63 1005.38 1006.24 1007.03 1007.71 1007.98 1008.20 1008.60 1008.83 1009.30 1009.53 1009.60 1009.55 1009.57 1009.56 1009.53 1009.56 1009.60 1009.74 1009.92 1010.14 1010.19 1010.18 1010.01 1010.14 1010.35 1010.55 1010.78 1011.06 1011.23 1011.37
1007.50 1006.85 1005.87 1004.86 1004.48 1003.77 1003.64 1002.58 1001.54 1001.12 1001.68 1001.82 1001.92 1002.26 1002.65 1002.82 1003.66 1004.02 1004.44 1004.98 1005.86 1006.69 1007.22 1007.72 1007.97 1008.36 1008.64 1008.97 1009.23 1009.31 1009.26 1009.28 1009.14 1009.13 1009.28 1009.33 1009.41 1009.50 1009.75 1009.84 1009.78 1009.64 1009.98 1010.17 1010.32 1010.61 1010.84 1011.16 1011.28
1006.63 1006.42 1005.40 1004.42 1003.25 1003.66 1003.07 1002.53 1001.38 1000.77 1001.02 1000.91 1001.27 1001.60 1002.03 1002.63 1002.92 1003.51 1004.41 1005.40 1006.01 1006.56 1006.94 1007.51 1007.91 1008.04 1008.33 1008.68 1008.92 1009.00 1009.03 1008.89 1008.77 1008.85 1008.95 1008.97 1009.07 1009.10 1009.26 1009.41 1009.47 1009.48 1009.77 1010.04 1010.22 1010.43 1010.72 1010.90 1011.10
1006.07 1005.86 1005.09 1003.60 1002.43 1003.73 1002.92 1002.22 1000.84 1000.31 1000.22 1000.27 1000.70 1001.40 1001.63 1002.27 1003.05 1003.96 1004.91 1005.58 1006.14 1006.52 1007.04 1007.67 1007.95 1007.97 1008.27 1008.74 1008.99 1009.14 1009.13 1008.77 1008.62 1008.47 1008.42 1008.55 1008.69 1008.71 1008.90 1009.03 1009.16 1009.24 1009.55 1009.75 1009.97 1010.31 1010.61 1010.94 1011.12
1005.39 1005.24 1004.64 1003.48 1002.62 1003.66 1002.68 1002.02 1000.78 999.96 999.91 999.91 1000.17 1000.76 1001.45 1002.55 1003.24 1004.02 1005.01 1005.64 1005.88 1006.50 1007.14 1007.62 1007.79 1007.91 1008.15 1008.46 1008.62 1008.78 1008.78 1008.60 1008.37 1008.18 1008.32 1008.15 1008.12 1008.18 1008.50 1008.75 1008.88 1008.97 1009.37 1009.59 1009.78 1010.10 1010.52 1010.80 1010.97
1004.14 1004.38 1003.93 1003.83 1002.73 1002.93 1003.06 1002.16 1000.98 999.47 999.32 999.59 1000.03 1000.43 1001.35 1002.00 1002.98 1003.98 1005.01 1005.53 1006.04 1006.75 1007.14 1007.42 1007.67 1007.68 1007.90 1008.11 1008.42 1008.59 1008.64 1008.55 1008.25 1008.27 1008.24 1007.91 1007.92 1007.82 1008.04 1008.46 1008.65 1008.85 1009.18 1009.40 1009.49 1009.80 1010.15 1010.67 1010.90
1003.23 1003.22 1003.38 1003.66 1003.70 1003.52 1002.48 1002.35 1001.35 999.73 999.38 999.41 999.59 1000.17 1000.87 1001.62 1002.61 1003.52 1004.72 1005.49 1005.96 1006.53 1006.84 1007.15 1007.48 1007.55 1007.71 1007.95 1008.35 1008.57 1008.76 1008.70 1008.31 1008.31 1008.10 1008.01 1007.96 1007.92 1008.07 1008.34 1008.57 1008.72 1008.93 1009.10 1009.14 1009.27 1009.62 1010.11 1010.72
1001.85 1002.68 1003.10 1003.16 1003.73 1003.81 1002.51 1002.94 1000.88 999.96 999.50 999.37 999.53 1000.06 1000.77 1001.23 1001.86 1003.33 1004.41 1005.20 1005.80 1006.32 1006.73 1007.07 1007.31 1007.43 1007.59 1007.85 1008.14 1008.43 1008.65 1008.42 1008.37 1008.30 1008.28 1008.12 1008.12 1008.04 1008.22 1008.43 1008.60 1008.77 1008.80 1008.90 1008.95 1009.24 1009.50 1009.76 1010.28
1001.51 1002.72 1002.98 1003.48 1003.92 1003.85 1002.97 1003.03 1000.47 1000.25 999.23 999.00 999.12 1000.06 1000.80 1001.76 1002.78 1003.74 1004.57 1005.23 1005.86 1006.26 1006.73 1007.05 1007.25 1007.50 1007.60 1007.84 1008.13 1008.30 1008.50 1008.34 1008.50 1008.55 1008.48 1008.42 1008.28 1008.26 1008.41 1008.53 1008.68 1008.84 1008.81 1009.01 1009.08 1009.33 1009.68 1009.79 1009.95
1001.43 1002.61 1003.74 1004.07 1004.04 1002.56 1002.36 1002.18 1000.09 998.86 998.68 998.91 999.32 1000.28 1001.29 1002.17 1002.99 1003.80 1004.67 1005.42 1005.91 1006.44 1006.79 1007.06 1007.22 1007.57 1007.66 1007.94 1008.20 1008.16 1008.29 1008.35 1008.60 1008.65 1008.61 1008.62 1008.59 1008.68 1008.67 1008.71 1008.88 1008.95 1008.97 1009.07 1009.16 1009.37 1009.62 1009.86 1010.06
1000.30 1001.57 1002.35 1003.23 1003.34 1002.78 1002.04 1000.86 998.88 997.76 997.59 997.95 998.88 1000.02 1001.36 1002.39 1003.19 1003.94 1004.68 1005.22 1005.77 1006.29 1006.67 1006.85 1007.18 1007.49 1007.64 1007.90 1008.04 1008.05 1008.08 1008.43 1008.58 1008.54 1008.50 1008.72 1008.76 1008.76 1008.81 1008.90 1009.04 1009.03 1009.06 1009.20 1009.36 1009.60 1009.86 1010.03 1010.22
998.87 999.85 1000.95 1002.28 1002.68 1002.36 1001.50 1000.03 998.62 997.75 998.05 998.96 999.69 1000.64 1001.52 1002.33 1003.10 1003.84 1004.64 1005.12 1005.64 1006.18 1006.59 1006.69 1007.09 1007.37 1007.66 1007.84 1007.91 1008.07 1008.10 1008.29 1008.47 1008.53 1008.55 1008.72 1008.78 1008.82 1008.85 1009.09 1009.21 1009.26 1009.35 1009.36 1009.57 1009.83 1010.22 1010.33 1010.56
997.48 999.10 1000.48 1001.67 1002.28 1002.18 1001.26 1000.26 999.46 999.00 998.99 999.65 1000.29 1000.73 1001.59 1002.58 1003.32 1003.89 1004.47 1005.06 1005.50 1005.98 1006.28 1006.51 1006.83 1007.27 1007.50 1007.60 1007.76 1007.79 1007.81 1008.14 1008.38 1008.59 1008.66 1008.70 1008.87 1008.88 1008.90 1009.16 1009.30 1009.40 1009.61 1009.71 1009.68 1010.18 1010.55 1010.71 1011.07
997.33 998.26 999.22 1000.04 1000.58 1001.00 1001.19 999.57 998.34 998.56 998.88 999.45 999.89 1000.26 1001.26 1002.18 1002.84 1003.58 1004.29 1004.76 1005.23 1005.82 1006.17 1006.43 1006.82 1007.27 1007.47 1007.50 1007.62 1007.75 1007.92 1008.17 1008.47 1008.65 1008.73 1008.68 1008.90 1009.03 1009.01 1009.19 1009.45 1009.62 1009.80 1010.03 1010.18 1010.72 1010.86 1011.02 1011.41
996.21 996.72 997.79 998.84 1000.02 999.97 1000.09 998.72 997.41 997.42 998.01 998.53 999.43 1000.09 1000.99 1001.83 1002.56 1003.38 1004.02 1004.58 1005.25 1005.75 1006.17 1006.37 1006.71 1007.07 1007.25 1007.36 1007.54 1007.64 1007.78 1008.26 1008.47 1008.59 1008.61 1008.76 1008.91 1009.11 1009.14 1009.22 1009.46 1009.83 1010.12 1010.32 1010.60 1011.00 1011.50 1011.65 1011.93
Wind_Speed
5 5 1 3 3 4 4 7 5 7 2 4 3 8 7 1 3 4 4 15 12 15 14 18 21 21 21 19 17 16 15 14 13 12 12 13 12 11 11 10 9 8 8 9 11 12 12 11 10
5 4 2 1 2 1 6 7 4 5 5 4 4 7 4 1 1 7 7 8 16 14 12 14 21 20 18 17 15 15 14 14 13 13 13 11 12 14 13 12 11 10 10 11 11 12 13 12 11
6 2 3 4 4 5 5 7 10 5 8 6 2 5 7 7 2 13 5 12 12 12 13 13 19 18 16 14 12 12 12 13 13 12 12 11 12 14 14 13 13 13 14 13 13 13 14 14 13
2 3 3 2 9 9 7 12 7 1 4 3 3 6 3 4 10 8 14 14 14 12 11 13 18 17 14 13 12 12 13 12 11 11 12 12 13 14 13 15 15 15 16 16 15 15 13 15 13
2 3 2 4 7 7 10 11 7 3 3 2 2 2 1 3 6 14 13 12 12 8 8 11 17 16 15 14 13 13 11 11 11 12 12 13 14 14 14 15 15 16 17 17 17 16 16 14 12
2 2 1 5 6 5 6 9 4 2 5 3 6 9 7 5 10 9 10 10 11 13 9 11 17 17 16 14 12 10 9 8 7 5 6 9 11 13 15 16 17 18 18 19 19 17 16 15 11
5 3 5 6 14 11 1 6 6 8 3 5 10 7 2 5 9 9 9 11 11 11 11 9 10 14 17 15 13 12 11 9 7 6 8 10 12 15 17 18 19 20 21 21 20 17 16 16 13
5 4 5 6 3 11 4 3 6 4 8 0 6 7 5 9 9 8 8 10 9 10 10 10 8 7 7 7 14 13 11 10 9 9 9 10 9 11 13 15 16 19 20 21 19 19 17 17 14
5 2 8 8 7 11 16 3 7 5 3 4 5 7 9 14 11 8 5 4 6 6 7 7 7 6 7 6 6 10 11 11 11 10 9 6 3 6 8 11 16 15 18 19 19 18 17 18 14
7 6 13 13 8 10 16 7 12 5 7 5 3 4 8 16 15 14 9 9 6 7 5 6 7 7 7 4 5 5 5 4 5 5 6 3 5 5 6 10 13 14 11 16 17 15 16 16 3
8 17 19 19 16 15 18 19 10 6 6 9 5 7 11 9 8 11 9 9 12 7 5 8 7 7 7 6 4 2 1 3 3 5 5 4 3 3 4 3 4 4 6 3 6 7 5 6 4
6 14 21 23 20 18 20 20 19 8 10 9 7 17 10 10 13 11 10 8 11 9 9 8 8 7 6 4 4 4 3 3 3 4 5 4 3 4 4 3 4 4 3 3 3 3 4 5 5
13 25 20 19 17 21 21 19 19 10 11 9 3 13 17 15 12 9 9 8 9 9 9 10 9 7 6 5 3 3 4 4 5 4 5 4 4 4 3 3 3 3 3 3 4 4 3 5 5
10 16 20 18 20 22 23 23 8 13 9 10 10 16 14 15 17 7 10 11 11 11 11 9 9 8 7 5 5 5 4 5 4 4 5 6 5 4 3 4 4 4 3 3 4 4 4 4 3
13 22 19 19 14 18 15 19 14 12 10 10 12 11 14 19 11 18 18 17 15 10 11 10 9 8 8 7 6 4 5 4 4 4 6 5 5 5 5 4 4 5 3 4 4 3 3 4 3
6 4 9 11 15 21 7 24 17 13 10 12 12 10 10 11 18 12 14 14 10 11 11 9 8 8 7 5 5 4 4 4 4 4 4 6 5 6 5 4 4 4 3 4 3 4 3 3 4
5 13 17 14 11 12 9 22 19 14 14 16 12 10 11 12 5 9 14 14 13 11 10 9 8 8 7 6 4 4 6 4 4 4 4 5 5 6 5 4 4 4 3 4 4 2 3 3 3
12 11 5 17 19 8 13 17 20 20 17 19 12 10 10 7 12 13 11 11 10 9 9 8 6 7 6 3 1 3 3 4 3 4 4 6 5 6 5 4 5 3 3 3 3 3 3 2 3
8 7 9 20 24 5 12 15 23 15 10 14 10 10 10 9 6 8 10 10 9 8 9 8 7 6 3 1 1 1 4 3 3 4 6 6 5 6 5 3 4 3 4 5 4 3 4 3 3
12 14 18 21 23 6 17 19 22 12 7 9 12 11 7 7 10 12 11 9 8 9 8 8 7 6 4 2 2 3 3 3 4 1 3 5 6 6 5 4 4 4 3 5 5 4 3 2 4
16 18 17 18 20 16 11 16 10 6 3 3 6 4 8 17 15 14 13 10 9 9 9 8 8 7 4 3 2 1 2 2 1 1 3 3 2 4 5 4 4 4 3 4 4 5 6 4 1
19 17 19 16 12 9 6 8 6 6 5 5 7 7 10 14 12 15 13 10 10 8 8 8 7 7 4 5 2 3 2 2 1 1 1 0 1 2 2 4 4 4 2 4 5 5 4 4 4
19 17 18 20 14 8 22 4 9 6 6 9 10 5 10 17 19 17 14 13 7 8 8 7 8 6 6 5 3 3 0 1 0 1 2 0 1 0 2 3 3 3 1 3 4 4 5 2 4
22 11 12 12 9 11 16 7 14 5 8 6 2 7 9 9 9 9 11 10 8 7 7 7 8 5 5 4 3 5 4 4 4 1 2 1 1 2 3 4 3 2 2 4 3 3 5 3 4
14 9 4 3 4 12 10 7 13 7 8 8 8 8 8 9 12 14 14 9 8 9 8 7 7 5 6 4 6 5 5 6 6 1 1 1 1 1 3 3 3 2 2 4 4 3 4 5 4
20 14 9 8 6 4 6 6 12 9 4 7 7 10 11 10 10 13 13 11 9 9 9 8 8 5 4 5 6 4 6 4 3 2 2 2 2 3 3 3 3 1 3 5 5 4 3 5 4
14 16 20 4 4 2 5 7 9 5 6 6 10 12 11 11 12 14 12 9 9 9 9 9 8 5 4 6 6 4 4 6 5 4 3 3 3 2 3 3 3 2 3 5 6 4 6 7 5
26 6 7 2 10 7 4 4 6 1 7 6 8 10 8 8 11 12 11 9 8 9 7 7 7 8 6 6 5 5 5 5 5 4 4 5 3 2 3 4 4 4 5 5 6 6 5 9 6
11 10 6 5 7 10 3 9 9 13 10 16 13 13 14 14 14 13 10 9 9 8 8 7 7 7 6 5 4 5 5 4 5 4 4 5 4 4 4 5 5 5 6 6 7 6 7 10 8
14 14 11 9 5 2 7 12 3 12 13 16 12 12 10 12 13 12 11 10 9 9 7 8 7 7 7 5 4 5 6 5 6 5 5 4 5 4 5 5 5 6 6 7 8 8 10 10 8
Wind_Direction
146 140 134 49 42 62 266 257 236 292 308 230 198 119 151 99 182 219 233 177 153 157 168 176 182 184 184 186 185 186 188 190 195 204 214 219 224 236 235 227 225 231 236 244 255 256 253 260 262
147 141 36 57 90 94 262 244 284 241 243 214 129 110 87 230 119 131 122 184 162 156 167 179 186 186 187 189 188 189 191 196 204 215 221 223 229 235 242 241 239 241 242 241 244 256 258 253 254
169 220 78 158 182 204 213 249 246 252 219 206 136 80 142 175 137 158 165 157 139 159 171 182 184 185 188 189 190 193 199 207 217 227 227 227 235 240 242 244 248 248 247 246 246 243 253 253 253
178 28 324 168 234 262 240 259 280 272 340 309 134 77 53 278 161 167 146 150 152 166 171 178 178 182 182 187 194 201 215 221 227 234 231 236 245 249 246 243 245 248 251 252 251 245 244 250 248
27 69 269 261 251 255 277 264 242 345 309 27 75 166 58 276 131 135 147 155 157 153 158 168 176 176 180 190 199 212 227 230 235 241 244 246 251 252 254 255 255 252 252 252 248 248 243 241 239
14 89 316 254 247 259 278 260 210 209 264 166 91 142 191 148 136 165 140 143 150 151 149 164 172 176 180 189 193 193 180 178 188 219 249 263 264 264 258 255 256 256 254 248 246 243 237 239 228
139 99 237 265 285 301 211 315 293 248 211 231 155 136 251 206 184 161 129 132 141 146 151 165 173 180 181 181 179 179 184 190 198 220 245 257 263 264 263 260 259 257 256 254 250 252 240 234 222
154 118 269 243 235 278 262 336 296 347 275 147 170 170 196 216 173 123 132 143 154 156 166 175 176 169 161 163 177 187 189 194 201 219 235 244 247 262 268 266 262 259 257 253 247 247 243 230 219
141 136 254 237 226 252 285 6 296 270 262 252 220 154 210 148 132 124 129 156 138 171 176 175 150 152 151 168 186 193 199 209 213 221 244 242 231 242 268 272 265 260 255 254 249 247 235 223 218
164 186 236 234 254 276 288 281 292 305 318 291 304 7 112 140 154 161 171 185 188 188 170 154 148 158 164 163 185 180 218 237 203 207 216 224 235 241 247 268 286 278 284 254 249 241 221 218 189
203 226 242 267 261 264 270 285 279 278 293 267 238 194 158 152 160 170 190 191 196 171 139 150 148 162 146 147 174 188 225 224 222 230 233 226 231 256 270 287 300 292 278 282 240 221 204 199 171
269 242 242 253 263 268 267 277 274 235 245 251 276 187 163 165 180 183 196 180 158 155 151 156 152 146 153 139 161 188 173 187 220 232 241 219 227 236 249 244 266 270 255 249 209 207 185 185 179
233 241 246 254 263 265 269 262 259 247 262 271 158 169 183 186 189 195 180 162 147 144 155 160 160 151 158 150 188 196 214 219 228 231 223 210 214 228 224 249 253 248 235 223 214 203 193 204 199
241 247 253 259 262 266 264 269 244 251 249 269 174 201 192 185 195 158 167 165 162 154 160 157 157 164 151 178 200 216 219 239 240 242 232 235 207 211 222 237 240 245 212 220 206 201 197 211 211
250 257 263 260 250 257 269 269 248 252 253 250 209 194 198 202 179 187 174 168 163 163 155 165 163 161 164 195 210 223 231 232 236 238 228 222 195 206 217 227 234 238 220 221 215 210 197 214 217
302 268 252 244 259 260 197 269 274 257 234 236 224 227 206 204 200 184 171 165 156 148 161 165 157 163 177 201 228 236 236 233 237 225 217 223 215 217 219 221 233 232 216 203 197 179 201 215 210
230 257 260 277 243 260 218 267 269 273 228 233 227 225 227 222 169 169 174 161 157 157 152 152 144 164 180 209 218 243 245 240 241 216 209 221 227 228 219 227 233 223 212 203 198 167 164 189 223
216 237 225 255 256 257 267 265 270 264 240 225 216 228 232 202 201 171 154 145 147 146 138 137 151 154 165 187 286 284 273 257 228 217 209 215 226 226 219 230 229 195 192 189 166 161 187 185 211
238 236 247 261 268 279 268 271 271 259 243 220 218 232 234 198 141 134 143 146 139 130 128 148 153 163 139 148 279 285 247 261 248 204 217 218 227 231 221 206 221 187 182 193 172 158 182 226 162
230 241 248 272 269 259 273 281 286 265 227 212 213 233 216 137 143 141 153 156 144 145 151 155 169 158 171 148 210 200 234 265 244 226 257 251 225 224 208 205 213 187 164 179 174 152 121 182 185
227 230 244 244 278 277 277 279 266 296 239 241 276 272 144 166 158 160 165 158 140 148 164 166 171 162 159 146 120 31 6 299 337 272 256 244 230 178 188 196 199 172 173 188 178 166 158 157 110
235 227 241 251 255 257 138 280 276 242 267 256 272 215 182 172 163 160 160 155 154 167 163 158 161 153 150 157 141 179 199 263 266 251 259 249 156 176 165 163 169 165 180 190 184 174 161 141 155
229 223 235 246 247 262 280 294 267 274 275 271 290 210 174 175 167 162 161 154 162 153 155 159 146 148 166 188 151 139 311 278 39 68 96 38 12 69 146 142 160 146 151 164 179 155 149 139 133
233 241 240 258 243 253 243 212 262 221 226 254 230 193 177 153 138 123 137 148 150 144 141 147 146 161 195 198 165 136 120 111 90 75 82 322 64 37 118 118 138 147 143 145 189 139 127 132 128
215 201 252 300 196 239 213 191 240 226 228 222 196 195 157 146 141 145 152 151 150 150 151 147 148 176 216 151 174 145 147 117 108 141 109 68 80 81 119 105 106 133 122 139 160 138 131 153 150
220 210 197 183 218 234 208 227 258 223 235 206 151 153 139 139 146 151 156 161 156 155 156 149 160 192 202 150 175 173 144 124 128 145 128 85 104 125 135 114 112 65 88 84 96 102 99 98 107
221 210 223 211 319 121 211 283 319 263 138 131 131 145 149 153 152 151 162 160 151 154 165 162 170 201 190 170 166 179 153 139 149 125 103 107 127 137 131 132 146 152 112 103 104 98 92 88 98
219 138 227 305 202 214 267 243 228 167 155 151 157 157 148 138 143 158 163 157 158 162 163 168 174 182 187 199 150 194 164 144 153 133 132 147 135 120 137 130 148 134 107 107 100 87 80 100 100
198 197 197 174 163 187 199 262 195 200 181 172 174 167 161 164 159 162 161 165 159 158 159 167 171 171 174 201 165 180 148 152 145 157 164 156 138 143 141 140 133 128 118 119 99 86 91 105 102
209 202 179 210 233 164 154 259 219 212 172 168 172 170 169 158 158 159 161 158 155 163 165 166 163 166 173 175 142 144 133 134 137 148 160 143 145 137 136 126 117 113 114 109 115 111 116 118 114